Location: Unspecified
(0.0000°N, 0.0000°E)
Time: 13:55:33
(UTC+00:00)

Envisat - Pass Details

Date: 16 April 2021
Orbit: 764 x 766 km, 98.1° (Epoch: 16 April)

Event Time Altitude Azimuth Distance (km) Brightness Sun altitude
Rises 04:35:29 0° 29° (NNE) 3,214 6.8 -20.7°
Reaches altitude 10° 04:37:58 10° 38° (NE) 2,292 6.1 -20.1°
Maximum altitude 04:42:31 34° 102° (ESE) 1,232 4.6 -19.0°
Drops below altitude 10° 04:47:05 10° 167° (SSE) 2,301 5.5 -17.9°
Sets 04:49:34 0° 175° (S) 3,230 6.2 -17.3°
